TimeCDT,TemperatureF,Dew PointF,Humidity,Sea Level PressureIn,VisibilityMPH,Wind Direction,Wind SpeedMPH,Gust SpeedMPH,PrecipitationIn,Events,Conditions,WindDirDegrees,DateUTC
12:56 AM,72.0,69.1,91,29.83,7.0,Calm,Calm,-,N/A,,Clear,0,2013-09-19 05:56:00
1:56 AM,72.0,69.1,91,29.84,7.0,Calm,Calm,-,N/A,,Partly Cloudy,0,2013-09-19 06:56:00
2:56 AM,73.9,69.1,85,29.83,8.0,Calm,Calm,-,N/A,,Mostly Cloudy,0,2013-09-19 07:56:00
3:03 AM,73.4,69.8,88,29.86,8.0,Calm,Calm,-,N/A,Thunderstorm,Mostly Cloudy,0,2013-09-19 08:03:00
3:40 AM,73.4,69.8,88,29.84,8.0,SSW,6.9,-,N/A,,Scattered Clouds,210,2013-09-19 08:40:00
3:56 AM,72.0,69.1,91,29.83,7.0,SSE,3.5,-,N/A,,Mostly Cloudy,150,2013-09-19 08:56:00
4:52 AM,71.6,68.0,88,29.84,7.0,ESE,6.9,-,N/A,Thunderstorm,Scattered Clouds,110,2013-09-19 09:52:00
4:56 AM,71.1,68.0,90,29.81,7.0,ESE,6.9,-,N/A,Thunderstorm,Scattered Clouds,120,2013-09-19 09:56:00
5:07 AM,71.6,69.8,94,29.84,6.0,ESE,4.6,-,N/A,,Partly Cloudy,120,2013-09-19 10:07:00
5:31 AM,69.8,68.0,94,29.85,5.0,ENE,3.5,-,N/A,Thunderstorm,Mostly Cloudy,70,2013-09-19 10:31:00
5:56 AM,71.1,69.1,93,29.81,2.0,South,15.0,26.5,0.17,Rain-Thunderstorm,Heavy Thunderstorms and Rain,180,2013-09-19 10:56:00
6:06 AM,71.6,68.0,88,29.84,6.0,Variable,3.5,24.2,0.00,Rain-Thunderstorm,Light Thunderstorms and Rain,0,2013-09-19 11:06:00
6:23 AM,69.8,66.2,88,29.83,2.5,NW,4.6,-,0.06,Rain-Thunderstorm,Light Rain,310,2013-09-19 11:23:00
6:30 AM,71.6,66.2,83,29.83,3.0,Variable,3.5,-,0.13,Rain-Thunderstorm,Light Rain,0,2013-09-19 11:30:00
6:37 AM,69.8,66.2,88,29.84,2.0,Calm,Calm,-,0.14,Rain-Thunderstorm,Light Rain,0,2013-09-19 11:37:00
6:56 AM,69.1,66.9,93,29.82,1.8,SE,5.8,-,0.43,Rain-Thunderstorm,Heavy Thunderstorms and Rain,140,2013-09-19 11:56:00
7:08 AM,69.8,66.2,88,29.84,3.0,East,4.6,-,0.12,Rain-Thunderstorm,Light Thunderstorms and Rain,90,2013-09-19 12:08:00
7:46 AM,69.8,68.0,94,29.84,7.0,ESE,6.9,-,0.13,Rain,Light Rain,110,2013-09-19 12:46:00
7:56 AM,69.1,68.0,96,29.81,5.0,East,6.9,-,0.13,,Mostly Cloudy,90,2013-09-19 12:56:00
8:17 AM,69.8,69.8,100,29.84,4.0,ESE,5.8,-,N/A,Thunderstorm,Mostly Cloudy,120,2013-09-19 13:17:00
8:51 AM,71.6,69.8,94,29.84,5.0,Calm,Calm,-,N/A,,Overcast,0,2013-09-19 13:51:00
8:56 AM,71.1,69.1,93,29.82,5.0,South,6.9,-,N/A,,Overcast,190,2013-09-19 13:56:00
9:05 AM,71.6,68.0,88,29.85,6.0,SSE,4.6,-,0.00,Rain-Thunderstorm,Light Thunderstorms and Rain,160,2013-09-19 14:05:00
9:46 AM,73.4,71.6,94,29.86,5.0,SSE,5.8,-,0.03,,Mostly Cloudy,150,2013-09-19 14:46:00
9:56 AM,73.0,70.0,90,29.83,6.0,SSE,8.1,-,0.03,,Mostly Cloudy,150,2013-09-19 14:56:00
10:23 AM,73.4,69.8,88,29.85,5.0,SSE,4.6,-,0.00,,Mostly Cloudy,150,2013-09-19 15:23:00
10:38 AM,71.6,69.8,94,29.83,4.0,ESE,5.8,-,0.01,Rain,Light Rain,120,2013-09-19 15:38:00
10:56 AM,72.0,70.0,93,29.81,4.0,ESE,8.1,-,0.01,Rain,Light Rain,120,2013-09-19 15:56:00
11:56 AM,75.0,72.0,90,29.81,5.0,Calm,Calm,-,0.00,,Clear,0,2013-09-19 16:56:00
12:56 PM,81.0,73.9,79,29.78,7.0,South,6.9,-,N/A,,Clear,180,2013-09-19 17:56:00
1:56 PM,84.9,72.0,65,29.76,9.0,SSW,12.7,-,N/A,,Scattered Clouds,200,2013-09-19 18:56:00
2:56 PM,87.1,72.0,61,29.72,10.0,South,10.4,-,N/A,,Partly Cloudy,190,2013-09-19 19:56:00
3:56 PM,84.9,71.1,63,29.69,10.0,SSW,11.5,-,N/A,,Mostly Cloudy,200,2013-09-19 20:56:00
4:15 PM,84.2,71.6,66,29.75,10.0,SW,11.5,18.4,N/A,Thunderstorm,Overcast,230,2013-09-19 21:15:00
4:23 PM,71.6,62.6,73,29.78,8.0,West,36.8,57.5,N/A,Thunderstorm,Unknown,260,2013-09-19 21:23:00
4:28 PM,66.2,62.6,88,29.77,1.8,West,29.9,57.5,0.07,Rain-Thunderstorm,Thunderstorms and Rain,280,2013-09-19 21:28:00
4:35 PM,66.2,64.4,94,29.77,1.5,West,17.3,44.9,0.11,Rain-Thunderstorm,Thunderstorms and Rain,280,2013-09-19 21:35:00
4:38 PM,66.2,64.4,94,29.76,3.0,West,15.0,36.8,0.11,Rain-Thunderstorm,Thunderstorms and Rain,280,2013-09-19 21:38:00
4:56 PM,68.0,64.9,90,29.69,10.0,Calm,Calm,-,0.12,Rain-Thunderstorm,Light Rain,0,2013-09-19 21:56:00
5:10 PM,66.2,64.4,94,29.71,10.0,SE,5.8,-,0.00,,Scattered Clouds,130,2013-09-19 22:10:00
5:56 PM,69.1,66.0,90,29.73,10.0,NNW,3.5,-,0.00,,Clear,330,2013-09-19 22:56:00
6:56 PM,70.0,66.9,90,29.73,10.0,Calm,Calm,-,0.01,,Mostly Cloudy,0,2013-09-19 23:56:00
7:10 PM,69.8,66.2,88,29.75,8.0,NW,4.6,-,0.00,Rain-Thunderstorm,Light Thunderstorms and Rain,310,2013-09-20 00:10:00
7:29 PM,69.8,68.0,94,29.77,1.5,West,18.4,26.5,0.17,Rain-Thunderstorm,Heavy Thunderstorms and Rain,260,2013-09-20 00:29:00
7:36 PM,69.8,68.0,94,29.78,0.8,WNW,20.7,31.1,0.29,Rain-Thunderstorm,Heavy Thunderstorms and Rain,290,2013-09-20 00:36:00
7:44 PM,69.8,69.8,100,29.76,1.2,WNW,9.2,25.3,0.39,Rain-Thunderstorm,Heavy Thunderstorms and Rain,290,2013-09-20 00:44:00
7:48 PM,69.8,69.8,100,29.78,2.0,WSW,10.4,-,0.39,Rain-Thunderstorm,Thunderstorms and Rain,250,2013-09-20 00:48:00
7:53 PM,69.8,68.0,94,29.81,1.5,WSW,15.0,21.9,0.56,Rain-Thunderstorm,Heavy Thunderstorms and Rain,250,2013-09-20 00:53:00
7:56 PM,69.1,68.0,96,29.77,1.0,West,12.7,21.9,0.69,Rain-Thunderstorm,Heavy Thunderstorms and Rain,280,2013-09-20 00:56:00
8:03 PM,69.8,69.8,100,29.76,0.8,NNW,9.2,20.7,0.20,Rain-Thunderstorm,Heavy Thunderstorms and Rain,340,2013-09-20 01:03:00
8:12 PM,69.8,69.8,100,29.80,2.0,SW,6.9,16.1,0.29,Rain-Thunderstorm,Thunderstorms and Rain,220,2013-09-20 01:12:00
8:22 PM,69.8,69.8,100,29.76,3.0,North,5.8,-,0.34,Rain-Thunderstorm,Heavy Thunderstorms and Rain,360,2013-09-20 01:22:00
8:29 PM,69.8,69.8,100,29.78,4.0,West,3.5,-,0.34,Rain-Thunderstorm,Light Thunderstorms and Rain,280,2013-09-20 01:29:00
8:56 PM,69.1,69.1,100,29.77,4.0,South,10.4,-,0.41,Rain-Thunderstorm,Thunderstorms and Rain,190,2013-09-20 01:56:00
9:05 PM,69.8,69.8,100,29.80,4.0,SSE,8.1,-,0.03,Rain-Thunderstorm,Heavy Thunderstorms and Rain,160,2013-09-20 02:05:00
9:18 PM,69.8,69.8,100,29.77,4.0,East,3.5,-,0.07,Rain-Thunderstorm,Thunderstorms and Rain,100,2013-09-20 02:18:00
9:26 PM,69.8,69.8,100,29.76,5.0,Variable,4.6,-,0.09,Rain,Rain,0,2013-09-20 02:26:00
9:56 PM,68.0,68.0,100,29.69,10.0,East,5.8,-,0.11,,Scattered Clouds,100,2013-09-20 02:56:00
10:46 PM,68.0,68.0,100,29.79,10.0,Calm,Calm,-,N/A,,Mostly Cloudy,0,2013-09-20 03:46:00
10:56 PM,69.1,69.1,100,29.77,10.0,Calm,Calm,-,N/A,,Overcast,0,2013-09-20 03:56:00
11:41 PM,68.0,68.0,100,29.79,10.0,SSW,9.2,-,N/A,,Overcast,200,2013-09-20 04:41:00
11:56 PM,69.1,68.0,96,29.75,10.0,SW,3.5,-,N/A,,Overcast,230,2013-09-20 04:56:00